Location: Hobi?a Gr?di?te
(45.4833°N, 22.7833°E)
Time: 05:33:42
(UTC+00:00)

ADEOS - Pass Details

Date: 28 January 2023
Orbit: 792 x 793 km, 98.9° (Epoch: 29 March)

Event Time Altitude Azimuth Distance (km) Brightness Sun altitude
Rises 16:13:16 0° 168° (SSE) 3,280 6.9 -8.0°
Reaches altitude 10° 16:15:35 10° 170° (S) 2,354 6.1 -8.4°
Maximum altitude 16:20:47 75° 256° (WSW) 825 3.9 -9.3°
Drops below altitude 10° 16:26:01 10° 342° (NNW) 2,371 6.1 -10.1°
Sets 16:28:22 0° 345° (NNW) 3,305 6.8 -10.5°
